C/2008 Q3 ( Garradd )

Japanese version
Home page
Updated on November 14, 2009

---------------------------------------------------------------------

* Profile

Discovery Date August 27, 2008
Magnitude 19.2 mag
Discoverer G. J. Garradd (Siding Spring Survey)

* Pictures

* Orbital Elements

Epoch 2009 June 18.0 TT = JDT 2455000.5
T 2009 June 23.10242 TT                                 MPC
q   1.7983099            (2000.0)            P               Q
z  +0.0001710      Peri.  340.85657     -0.56424227     -0.71954018
 +/-0.0000061      Node   219.73567     -0.65051353     +0.08551470
e   0.9996925      Incl.  140.70580     -0.50839237     +0.68916556

* Finding Charts

* Magnitudes Graph

        m1 = -0.3 + 5 log d + 28.5 log r

---------------------------------------------------------------------

The orbital elements are published on M.P.E.C. 2009-G07.
The charts are made with StellaNavigator Ver.8 (AstroArts).
The magnitudes graphs are made with Comet for Windows.

---------------------------------------------------------------------

Copyright(C) Seiichi Yoshida (comet@aerith.net). All rights reserved.